TRA23U EHAM-LEPA

Flight info

Callsign TRA23U
Flight time N/A
Altitude 23000
Route WOODY N872 CIV/N0461F350 DCT KOVIN/N0462F330 DCT DUCRA UM728 RESMI UN857 DISAK/N0463F350 DCT DIRMO DCT VALKU DCT ATSUP DCT MINSO DCT DEGOL DCT PPG DCT ALBER P84 LORES
Aircraft B738/M-SDE2E3FGHIRWXY/LB1

Departure

Time 2026-05-04 09:15
Airport Amsterdam Airport Schiphol (EHAM)

Arrival

Time N/A
Airport Palma de Mallorca Airport (LEPA)
Time Latitude Longitude Altitude Speed Heading
2026-05-04 09:15 52.21535 4.80680 3121 ft 261 kts 169°
2026-05-04 09:15 52.19745 4.80731 3978 ft 261 kts 186°
2026-05-04 09:15 52.17949 4.80429 4864 ft 264 kts 186°
2026-05-04 09:15 52.16090 4.80123 5704 ft 268 kts 186°
2026-05-04 09:17 52.00570 4.75974 10789 ft 334 kts 205°
2026-05-04 09:18 51.98411 4.74411 11252 ft 345 kts 205°
2026-05-04 09:18 51.96195 4.72829 11937 ft 349 kts 205°
2026-05-04 09:18 51.93958 4.71267 12686 ft 352 kts 204°
2026-05-04 09:18 51.91690 4.69716 13416 ft 355 kts 204°
2026-05-04 09:19 51.89400 4.68173 14105 ft 359 kts 204°
2026-05-04 09:19 51.87080 4.66624 14768 ft 362 kts 203°
2026-05-04 09:19 51.84739 4.65068 15428 ft 365 kts 204°
2026-05-04 09:19 51.82378 4.63503 16062 ft 368 kts 204°
2026-05-04 09:20 51.80033 4.61952 16687 ft 371 kts 204°
2026-05-04 09:20 51.77625 4.60360 17316 ft 375 kts 204°
2026-05-04 09:20 51.75201 4.58759 17928 ft 378 kts 204°
2026-05-04 09:20 51.72751 4.57142 18493 ft 381 kts 204°
2026-05-04 09:21 51.70294 4.55524 19049 ft 383 kts 204°
2026-05-04 09:21 51.67815 4.53893 19642 ft 384 kts 204°
2026-05-04 09:21 51.65347 4.52274 20255 ft 383 kts 203°
2026-05-04 09:21 51.62872 4.50655 20836 ft 384 kts 203°
2026-05-04 09:22 51.60399 4.49039 21397 ft 385 kts 203°
2026-05-04 09:22 51.57907 4.47412 21976 ft 387 kts 203°
2026-05-04 09:22 51.55407 4.45781 22595 ft 388 kts 203°
2026-05-04 09:22 51.52902 4.44150 23196 ft 389 kts 203°
2026-05-04 09:23 51.50390 4.42513 23728 ft 390 kts 203°
2026-05-04 09:23 51.47867 4.40868 24126 ft 393 kts 203°
2026-05-04 09:23 51.45317 4.39210 24419 ft 398 kts 203°
2026-05-04 09:23 51.42748 4.37543 24828 ft 399 kts 203°
2026-05-04 09:25 51.24586 4.25821 27517 ft 407 kts 203°
2026-05-04 09:25 51.21961 4.24135 27904 ft 407 kts 203°
2026-05-04 09:26 51.19334 4.22448 28250 ft 408 kts 203°
2026-05-04 09:26 51.16695 4.20757 28576 ft 409 kts 203°
2026-05-04 09:26 51.14050 4.19063 28885 ft 411 kts 203°
2026-05-04 09:26 51.11397 4.17369 29212 ft 411 kts 203°
2026-05-04 09:27 51.08746 4.15678 29689 ft 408 kts 203°
2026-05-04 09:27 51.06131 4.14012 30221 ft 404 kts 204°
2026-05-04 09:27 51.03526 4.12354 30611 ft 402 kts 204°
2026-05-04 09:27 51.00925 4.10699 30887 ft 403 kts 204°
2026-05-04 09:28 50.98323 4.09044 31155 ft 403 kts 204°
2026-05-04 09:28 50.95723 4.07394 31508 ft 402 kts 204°
2026-05-04 09:28 50.93137 4.05753 31878 ft 400 kts 204°
2026-05-04 09:28 50.90590 4.04140 32190 ft 399 kts 204°
2026-05-04 09:29 50.88015 4.02512 32474 ft 399 kts 204°
2026-05-04 09:29 50.85435 4.00884 32771 ft 398 kts 204°
2026-05-04 09:29 50.82863 3.99263 33092 ft 397 kts 204°
2026-05-04 09:29 50.80265 3.97627 33403 ft 396 kts 204°
2026-05-04 09:30 50.77748 3.96044 33801 ft 393 kts 204°
2026-05-04 09:30 50.75210 3.94449 34092 ft 392 kts 204°
2026-05-04 09:30 50.72668 3.92853 34234 ft 394 kts 204°
2026-05-04 09:30 50.70113 3.91249 34365 ft 396 kts 204°
2026-05-04 09:31 50.67550 3.89643 34563 ft 397 kts 204°
2026-05-04 09:31 50.64953 3.88138 34752 ft 399 kts 198°
2026-05-04 09:31 50.62220 3.87271 34913 ft 403 kts 192°
2026-05-04 09:31 50.59444 3.86621 35094 ft 404 kts 192°
2026-05-04 09:32 50.56662 3.85968 35276 ft 404 kts 192°
2026-05-04 09:32 50.53885 3.85308 35483 ft 404 kts 192°
2026-05-04 09:34 50.34277 3.80508 36567 ft 410 kts 191°
2026-05-04 09:34 50.31460 3.79817 36714 ft 411 kts 191°
2026-05-04 09:34 50.28630 3.79123 36848 ft 412 kts 191°
2026-05-04 09:34 50.25798 3.78430 36973 ft 413 kts 191°
2026-05-04 09:35 50.20093 3.77036 36992 ft 415 kts 191°
2026-05-04 09:35 50.14402 3.75650 36999 ft 412 kts 191°
2026-05-04 09:37 49.91993 3.70220 37004 ft 407 kts 191°
2026-05-04 09:38 49.86389 3.68870 37001 ft 408 kts 191°
2026-05-04 09:38 49.80766 3.67518 37006 ft 410 kts 191°
2026-05-04 09:39 49.75121 3.66165 37004 ft 412 kts 191°
2026-05-04 09:39 49.69448 3.64808 37000 ft 414 kts 191°
2026-05-04 09:40 49.63746 3.63448 36999 ft 415 kts 191°
2026-05-04 09:40 49.58031 3.62087 36987 ft 416 kts 191°
2026-05-04 09:42 49.35211 3.56667 37004 ft 414 kts 191°
2026-05-04 09:43 49.29516 3.55214 37009 ft 415 kts 191°
2026-05-04 09:43 49.23814 3.53926 37000 ft 413 kts 191°
2026-05-04 09:44 49.18124 3.52606 36989 ft 414 kts 191°
2026-05-04 09:46 48.95629 3.47306 36996 ft 405 kts 191°
2026-05-04 09:46 48.90060 3.46001 36988 ft 405 kts 191°
2026-05-04 09:47 48.84493 3.44700 36994 ft 405 kts 191°
2026-05-04 09:49 48.62097 3.39495 36996 ft 412 kts 191°
2026-05-04 09:51 48.42226 3.34915 36980 ft 412 kts 191°
2026-05-04 09:51 48.36566 3.33619 36986 ft 410 kts 191°
2026-05-04 09:52 48.31882 3.32547 36987 ft 409 kts 191°
2026-05-04 09:52 48.26266 3.31265 36989 ft 408 kts 191°
2026-05-04 09:53 48.20664 3.29987 36988 ft 407 kts 191°
2026-05-04 09:53 48.15078 3.28728 36986 ft 405 kts 189°
2026-05-04 09:54 48.09447 3.28157 36994 ft 406 kts 185°
2026-05-04 09:54 48.03808 3.27713 36995 ft 405 kts 185°
2026-05-04 09:55 47.98176 3.27258 36991 ft 405 kts 186°
2026-05-04 09:55 47.92537 3.26787 36989 ft 406 kts 186°
2026-05-04 09:56 47.86892 3.26310 36992 ft 407 kts 186°
2026-05-04 09:56 47.81235 3.25830 36995 ft 408 kts 186°
2026-05-04 09:57 47.75603 3.25354 36985 ft 409 kts 186°
2026-05-04 09:57 47.69915 3.24874 36993 ft 410 kts 186°
2026-05-04 09:58 47.64215 3.24394 36998 ft 410 kts 186°
2026-05-04 09:58 47.58509 3.23915 36994 ft 411 kts 186°
2026-05-04 10:00 47.35663 3.22007 36994 ft 411 kts 186°
2026-05-04 10:04 46.95757 3.18713 36990 ft 408 kts 186°
2026-05-04 10:04 46.90089 3.18249 36993 ft 407 kts 186°
2026-05-04 10:05 46.84430 3.17787 36989 ft 407 kts 186°
2026-05-04 10:05 46.78782 3.17326 36991 ft 406 kts 186°
2026-05-04 10:06 46.73139 3.16867 36993 ft 406 kts 186°
2026-05-04 10:06 46.67500 3.16409 37003 ft 406 kts 186°
2026-05-04 10:08 46.47760 3.14814 36998 ft 408 kts 186°
2026-05-04 10:08 46.42089 3.14359 36991 ft 408 kts 186°
2026-05-04 10:09 46.36422 3.13904 36991 ft 408 kts 186°
2026-05-04 10:09 46.30757 3.13450 36989 ft 408 kts 186°
2026-05-04 10:10 46.25091 3.12997 36989 ft 408 kts 186°
2026-05-04 10:10 46.19416 3.12545 36990 ft 408 kts 186°
2026-05-04 10:11 46.13748 3.12094 36993 ft 408 kts 186°
2026-05-04 10:11 46.08083 3.11644 36987 ft 407 kts 186°
2026-05-04 10:12 46.02429 3.11196 36995 ft 407 kts 186°
2026-05-04 10:12 45.96776 3.10749 36996 ft 407 kts 186°
2026-05-04 10:13 45.91112 3.10302 36988 ft 408 kts 186°
2026-05-04 10:13 45.85471 3.09857 36987 ft 409 kts 186°
2026-05-04 10:14 45.79799 3.09412 36993 ft 408 kts 186°
2026-05-04 10:16 45.57134 3.07639 36995 ft 407 kts 186°
2026-05-04 10:16 45.51468 3.07195 36972 ft 408 kts 186°
2026-05-04 10:17 45.45810 3.06757 36987 ft 407 kts 186°
2026-05-04 10:19 45.23207 3.05013 36989 ft 406 kts 186°
2026-05-04 10:19 45.17558 3.04578 36995 ft 406 kts 186°
2026-05-04 10:20 45.11913 3.04145 36992 ft 406 kts 186°
2026-05-04 10:20 45.06274 3.03714 36992 ft 406 kts 186°
2026-05-04 10:21 45.00636 3.03283 36995 ft 405 kts 186°
2026-05-04 10:21 44.95006 3.02853 36997 ft 405 kts 187°
2026-05-04 10:22 44.86565 3.02211 37002 ft 405 kts 186°
2026-05-04 10:23 44.80937 3.01784 36999 ft 405 kts 186°
2026-05-04 10:25 44.58454 3.00084 37015 ft 408 kts 186°
2026-05-04 10:25 44.52773 2.99657 37000 ft 409 kts 187°
2026-05-04 10:26 44.47086 2.99235 36999 ft 409 kts 187°
2026-05-04 10:26 44.41410 2.98809 37005 ft 408 kts 187°
2026-05-04 10:27 44.35749 2.98385 37004 ft 407 kts 187°
2026-05-04 10:27 44.30111 2.97964 36994 ft 405 kts 187°
2026-05-04 10:28 44.24489 2.97546 36991 ft 404 kts 187°
2026-05-04 10:28 44.18880 2.97129 37003 ft 403 kts 187°
2026-05-04 10:29 44.13279 2.96713 37004 ft 403 kts 187°
2026-05-04 10:29 44.07686 2.96299 37002 ft 402 kts 187°
2026-05-04 10:30 44.02104 2.95880 37001 ft 401 kts 187°
2026-05-04 10:30 43.96537 2.95455 36988 ft 400 kts 187°
2026-05-04 10:31 43.90973 2.95042 36986 ft 401 kts 188°
2026-05-04 10:32 43.71427 2.93545 36997 ft 403 kts 188°
2026-05-04 10:33 43.65833 2.93120 37004 ft 403 kts 188°
2026-05-04 10:33 43.60225 2.92694 36997 ft 404 kts 188°
2026-05-04 10:34 43.54619 2.92273 36990 ft 404 kts 188°
2026-05-04 10:34 43.49009 2.91806 36982 ft 405 kts 188°
2026-05-04 10:35 43.43388 2.91401 37001 ft 405 kts 188°
2026-05-04 10:35 43.37799 2.90995 36979 ft 404 kts 188°
2026-05-04 10:36 43.32181 2.90579 36993 ft 404 kts 188°
2026-05-04 10:36 43.26564 2.90174 36991 ft 404 kts 188°
2026-05-04 10:37 43.20939 2.89763 36975 ft 405 kts 188°
2026-05-04 10:37 43.15326 2.89344 36979 ft 403 kts 188°
2026-05-04 10:39 42.96671 2.87945 36953 ft 403 kts 188°
2026-05-04 10:40 42.91071 2.87527 36969 ft 404 kts 188°
2026-05-04 10:40 42.85457 2.87114 36955 ft 404 kts 189°
2026-05-04 10:41 42.79835 2.86696 36968 ft 405 kts 188°
2026-05-04 10:41 42.74211 2.86289 36946 ft 405 kts 188°
2026-05-04 10:41 42.71393 2.86100 36655 ft 404 kts 188°
2026-05-04 10:42 42.68598 2.85919 36398 ft 400 kts 187°
2026-05-04 10:42 42.65834 2.85736 36142 ft 396 kts 187°
2026-05-04 10:42 42.63083 2.85534 35898 ft 396 kts 188°
2026-05-04 10:42 42.60335 2.85322 35651 ft 396 kts 188°
2026-05-04 10:43 42.57573 2.85107 35393 ft 396 kts 188°
2026-05-04 10:44 42.38237 2.83716 34934 ft 397 kts 187°
2026-05-04 10:45 42.35485 2.83533 34907 ft 395 kts 187°
2026-05-04 10:45 42.30053 2.83156 34927 ft 393 kts 187°
2026-05-04 10:46 42.24604 2.82765 34920 ft 392 kts 187°
2026-05-04 10:46 42.19159 2.82372 34931 ft 392 kts 187°
2026-05-04 10:47 42.13706 2.81967 34934 ft 393 kts 187°
2026-05-04 10:47 42.08228 2.81554 34935 ft 395 kts 187°
2026-05-04 10:49 41.86088 2.79943 34936 ft 400 kts 188°
2026-05-04 10:50 41.80536 2.79552 34933 ft 399 kts 188°
2026-05-04 10:51 41.61440 2.78223 34629 ft 377 kts 188°
2026-05-04 10:52 41.58850 2.78066 34311 ft 370 kts 188°
2026-05-04 10:52 41.56302 2.77900 33969 ft 365 kts 188°
2026-05-04 10:52 41.53780 2.77732 33554 ft 360 kts 188°
2026-05-04 10:54 41.37083 2.76554 31069 ft 329 kts 188°
2026-05-04 10:54 41.34843 2.76394 30737 ft 325 kts 188°
2026-05-04 10:56 41.18551 2.75218 28190 ft 330 kts 187°
2026-05-04 10:56 41.16271 2.75058 27813 ft 326 kts 187°
2026-05-04 10:56 41.14016 2.74897 27464 ft 322 kts 187°
2026-05-04 10:57 41.11791 2.74738 27110 ft 318 kts 187°
2026-05-04 10:57 41.09590 2.74579 26750 ft 315 kts 187°
2026-05-04 10:57 41.07409 2.74421 26415 ft 313 kts 187°
2026-05-04 10:57 41.05247 2.74262 26088 ft 310 kts 187°
2026-05-04 10:58 41.03086 2.74101 25759 ft 313 kts 187°
2026-05-04 10:58 41.00872 2.73931 25451 ft 326 kts 187°
2026-05-04 10:58 40.98569 2.73747 25052 ft 334 kts 187°
2026-05-04 10:58 40.96252 2.73570 24691 ft 332 kts 186°
2026-05-04 10:59 40.93951 2.73407 24329 ft 330 kts 186°
2026-05-04 10:59 40.91668 2.73256 23962 ft 328 kts 186°
2026-05-04 10:59 40.89395 2.73110 23596 ft 326 kts 185°
2026-05-04 10:59 40.87128 2.72975 23125 ft 326 kts 185°
2026-05-04 11:00 40.84874 2.72839 22753 ft 322 kts 185°
2026-05-04 11:01 40.69781 2.71790 20423 ft 302 kts 185°
2026-05-04 11:02 40.67685 2.71636 20104 ft 303 kts 185°
2026-05-04 11:02 40.65559 2.71476 19797 ft 311 kts 186°
2026-05-04 11:05 40.37735 2.79333 15253 ft 298 kts 152°